Time,TemperatureF,DewpointF,PressureIn,WindDirection,WindDirectionDegrees,WindSpeedMPH,WindSpeedGustMPH,Humidity,HourlyPrecipIn,Conditions,Clouds,dailyrainin,SolarRadiationWatts/m^2,SoftwareType,DateUTC
2013-06-03 00:01:00,68.6,63.6,29.84,West,278,0.0,1.0,84,0.00,,,0.00,0,WeatherCatV1.15B25,2013-06-03 04:01:00,
2013-06-03 00:06:00,68.5,63.5,29.84,West,278,0.0,1.0,84,0.00,,,0.00,0,WeatherCatV1.15B25,2013-06-03 04:06:00,
2013-06-03 00:11:00,68.4,63.4,29.84,West,278,0.0,0.0,84,0.00,,,0.00,0,WeatherCatV1.15B25,2013-06-03 04:11:00,
2013-06-03 00:16:00,68.4,63.4,29.84,West,278,0.0,0.0,84,0.00,,,0.00,0,WeatherCatV1.15B25,2013-06-03 04:16:00,
2013-06-03 00:21:00,68.3,63.3,29.85,West,278,0.0,0.0,84,0.00,,,0.00,0,WeatherCatV1.15B25,2013-06-03 04:21:00,
2013-06-03 00:26:00,68.2,63.2,29.85,West,278,0.0,0.0,84,0.00,,,0.00,0,WeatherCatV1.15B25,2013-06-03 04:26:00,
2013-06-03 00:31:00,68.0,63.0,29.85,West,278,0.0,0.0,84,0.00,,,0.01,0,WeatherCatV1.15B25,2013-06-03 04:31:00,
2013-06-03 00:36:00,68.0,63.0,29.85,West,278,0.0,0.0,84,0.00,,,0.01,0,WeatherCatV1.15B25,2013-06-03 04:36:00,
2013-06-03 00:41:00,67.9,62.9,29.85,West,278,0.0,0.0,84,0.22,,,0.02,0,WeatherCatV1.15B25,2013-06-03 04:41:00,
2013-06-03 00:46:00,67.7,62.7,29.84,West,278,1.0,2.0,84,0.12,,,0.03,0,WeatherCatV1.15B25,2013-06-03 04:46:00,
2013-06-03 00:51:00,67.5,62.5,29.84,West,278,0.0,0.0,84,0.15,,,0.05,0,WeatherCatV1.15B25,2013-06-03 04:51:00,
2013-06-03 00:56:00,67.4,62.4,29.85,West,278,0.0,0.0,84,0.16,,,0.06,0,WeatherCatV1.15B25,2013-06-03 04:56:00,
2013-06-03 01:01:00,67.3,62.3,29.84,West,278,0.0,0.0,84,0.08,,,0.06,0,WeatherCatV1.15B25,2013-06-03 05:01:00,
2013-06-03 01:06:00,67.2,62.2,29.85,West,278,0.0,0.0,84,0.14,,,0.08,0,WeatherCatV1.15B25,2013-06-03 05:06:00,
2013-06-03 01:11:00,67.1,62.1,29.85,West,278,0.0,0.0,84,0.10,,,0.08,0,WeatherCatV1.15B25,2013-06-03 05:11:00,
2013-06-03 01:16:00,67.1,62.1,29.85,West,278,0.0,0.0,84,0.05,,,0.08,0,WeatherCatV1.15B25,2013-06-03 05:16:00,
2013-06-03 01:21:00,67.0,62.0,29.85,West,278,0.0,0.0,84,0.04,,,0.08,0,WeatherCatV1.15B25,2013-06-03 05:21:00,
2013-06-03 01:26:00,67.0,62.0,29.85,West,278,0.0,0.0,84,0.00,,,0.09,0,WeatherCatV1.15B25,2013-06-03 05:26:00,
2013-06-03 01:31:00,66.9,61.9,29.85,West,278,0.0,0.0,84,0.28,,,0.11,0,WeatherCatV1.15B25,2013-06-03 05:31:00,
2013-06-03 01:34:00,66.9,61.9,29.85,West,278,0.0,0.0,84,0.14,,,0.11,0,WeatherCatV1.15B25,2013-06-03 05:34:00,
2013-06-03 01:36:00,66.8,61.8,29.85,West,278,0.0,0.0,84,0.08,,,0.11,0,WeatherCatV1.15B25,2013-06-03 05:36:00,
2013-06-03 01:42:00,66.8,61.8,29.85,West,278,0.0,0.0,84,0.05,,,0.12,0,WeatherCatV1.15B25,2013-06-03 05:42:00,
2013-06-03 01:47:00,66.7,61.7,29.85,West,278,0.0,0.0,84,0.05,,,0.12,0,WeatherCatV1.15B25,2013-06-03 05:47:00,
2013-06-03 01:52:00,66.7,61.7,29.85,West,278,0.0,0.0,84,0.40,,,0.14,0,WeatherCatV1.15B25,2013-06-03 05:52:00,
2013-06-03 01:57:00,66.6,61.6,29.84,West,278,0.0,0.0,84,0.20,,,0.16,0,WeatherCatV1.15B25,2013-06-03 05:57:00,
2013-06-03 02:02:00,66.5,61.5,29.84,West,278,0.0,0.0,84,0.09,,,0.16,0,WeatherCatV1.15B25,2013-06-03 06:02:00,
2013-06-03 02:07:00,66.4,61.4,29.84,West,278,0.0,0.0,84,0.05,,,0.16,0,WeatherCatV1.15B25,2013-06-03 06:07:00,
2013-06-03 02:12:00,66.3,61.3,29.83,West,278,0.0,0.0,84,0.04,,,0.16,0,WeatherCatV1.15B25,2013-06-03 06:12:00,
2013-06-03 02:17:00,66.3,61.3,29.84,West,278,0.0,0.0,84,0.00,,,0.16,0,WeatherCatV1.15B25,2013-06-03 06:17:00,
2013-06-03 02:22:00,66.3,61.3,29.84,West,278,0.0,0.0,84,0.00,,,0.16,0,WeatherCatV1.15B25,2013-06-03 06:22:00,
2013-06-03 02:27:00,66.3,61.3,29.84,West,278,0.0,0.0,84,0.00,,,0.16,0,WeatherCatV1.15B25,2013-06-03 06:27:00,
2013-06-03 02:32:00,66.3,61.3,29.83,West,278,0.0,0.0,84,0.00,,,0.16,0,WeatherCatV1.15B25,2013-06-03 06:32:00,
2013-06-03 02:37:00,66.3,61.3,29.83,West,278,0.0,0.0,84,0.00,,,0.16,0,WeatherCatV1.15B25,2013-06-03 06:37:00,
2013-06-03 02:42:00,66.2,61.2,29.84,West,278,0.0,0.0,84,0.00,,,0.16,0,WeatherCatV1.15B25,2013-06-03 06:42:00,
2013-06-03 02:47:00,66.2,61.2,29.84,West,278,0.0,0.0,84,0.00,,,0.17,0,WeatherCatV1.15B25,2013-06-03 06:47:00,
2013-06-03 02:52:00,66.2,61.5,29.84,West,278,0.0,0.0,85,0.00,,,0.17,0,WeatherCatV1.15B25,2013-06-03 06:52:00,
2013-06-03 02:57:00,66.1,61.5,29.84,West,278,0.0,0.0,85,0.00,,,0.17,0,WeatherCatV1.15B25,2013-06-03 06:57:00,
2013-06-03 03:02:00,66.1,61.5,29.84,West,278,0.0,0.0,85,0.00,,,0.17,0,WeatherCatV1.15B25,2013-06-03 07:02:00,
2013-06-03 03:07:00,66.1,61.5,29.84,West,278,0.0,0.0,85,0.00,,,0.17,0,WeatherCatV1.15B25,2013-06-03 07:07:00,
2013-06-03 03:12:00,66.1,61.5,29.84,West,278,0.0,0.0,85,0.00,,,0.17,0,WeatherCatV1.15B25,2013-06-03 07:12:00,
2013-06-03 03:17:00,66.0,61.4,29.84,West,278,0.0,0.0,85,0.00,,,0.17,0,WeatherCatV1.15B25,2013-06-03 07:17:00,
2013-06-03 03:22:00,66.0,61.4,29.84,West,278,0.0,0.0,85,0.00,,,0.17,0,WeatherCatV1.15B25,2013-06-03 07:22:00,
2013-06-03 03:27:00,65.9,60.9,29.84,West,278,0.0,0.0,84,0.00,,,0.17,0,WeatherCatV1.15B25,2013-06-03 07:27:00,
2013-06-03 03:32:00,66.0,61.0,29.84,West,278,0.0,0.0,84,0.00,,,0.17,0,WeatherCatV1.15B25,2013-06-03 07:32:00,
2013-06-03 03:37:00,66.0,61.4,29.84,West,278,0.0,0.0,85,0.00,,,0.18,0,WeatherCatV1.15B25,2013-06-03 07:37:00,
2013-06-03 03:42:00,66.0,61.4,29.84,West,278,0.0,0.0,85,0.26,,,0.20,0,WeatherCatV1.15B25,2013-06-03 07:42:00,
2013-06-03 03:47:00,66.0,61.4,29.84,West,278,0.0,0.0,85,0.08,,,0.20,0,WeatherCatV1.15B25,2013-06-03 07:47:00,
2013-06-03 03:54:00,66.0,61.4,29.84,West,278,0.0,0.0,85,0.08,,,0.21,0,WeatherCatV1.15B25,2013-06-03 07:54:00,
2013-06-03 03:56:00,66.0,61.4,29.84,West,278,0.0,0.0,85,0.07,,,0.21,0,WeatherCatV1.15B25,2013-06-03 07:56:00,
2013-06-03 04:01:00,66.0,61.4,29.84,West,278,0.0,0.0,85,0.04,,,0.21,0,WeatherCatV1.15B25,2013-06-03 08:01:00,
2013-06-03 04:06:00,65.9,61.3,29.84,West,278,0.0,0.0,85,0.00,,,0.21,0,WeatherCatV1.15B25,2013-06-03 08:06:00,
2013-06-03 04:11:00,65.9,60.9,29.84,West,278,0.0,0.0,84,0.00,,,0.21,0,WeatherCatV1.15B25,2013-06-03 08:11:00,
2013-06-03 04:16:00,65.8,60.8,29.83,West,278,0.0,0.0,84,0.00,,,0.21,0,WeatherCatV1.15B25,2013-06-03 08:16:00,
2013-06-03 04:21:00,65.7,60.7,29.83,West,278,0.0,0.0,84,0.00,,,0.21,0,WeatherCatV1.15B25,2013-06-03 08:21:00,
2013-06-03 04:26:00,65.6,61.0,29.83,West,278,0.0,0.0,85,0.00,,,0.21,0,WeatherCatV1.15B25,2013-06-03 08:26:00,
2013-06-03 04:31:00,65.5,60.9,29.83,West,278,0.0,0.0,85,0.00,,,0.21,0,WeatherCatV1.15B25,2013-06-03 08:31:00,
2013-06-03 04:36:00,65.3,60.7,29.83,West,278,0.0,0.0,85,0.00,,,0.21,0,WeatherCatV1.15B25,2013-06-03 08:36:00,
2013-06-03 04:41:00,65.1,60.1,29.83,West,278,0.0,0.0,84,0.00,,,0.21,0,WeatherCatV1.15B25,2013-06-03 08:41:00,
2013-06-03 04:46:00,65.0,60.4,29.83,West,278,0.0,0.0,85,0.00,,,0.21,0,WeatherCatV1.15B25,2013-06-03 08:46:00,
2013-06-03 04:51:00,65.0,60.4,29.83,West,278,0.0,0.0,85,0.00,,,0.21,0,WeatherCatV1.15B25,2013-06-03 08:51:00,
2013-06-03 04:56:00,65.0,60.4,29.84,West,278,0.0,0.0,85,0.00,,,0.21,0,WeatherCatV1.15B25,2013-06-03 08:56:00,
2013-06-03 05:01:00,64.9,60.3,29.84,West,278,0.0,0.0,85,0.00,,,0.21,0,WeatherCatV1.15B25,2013-06-03 09:01:00,
2013-06-03 05:06:00,64.9,60.3,29.84,West,278,0.0,0.0,85,0.00,,,0.21,0,WeatherCatV1.15B25,2013-06-03 09:06:00,
2013-06-03 05:11:00,64.9,60.3,29.84,West,278,0.0,0.0,85,0.00,,,0.21,0,WeatherCatV1.15B25,2013-06-03 09:11:00,
2013-06-03 05:14:00,64.9,60.3,29.84,West,278,0.0,0.0,85,0.00,,,0.21,0,WeatherCatV1.15B25,2013-06-03 09:14:00,
2013-06-03 05:16:00,64.8,60.2,29.84,West,278,0.0,0.0,85,0.00,,,0.21,0,WeatherCatV1.15B25,2013-06-03 09:16:00,
2013-06-03 05:21:00,64.7,60.1,29.84,West,278,0.0,0.0,85,0.00,,,0.21,0,WeatherCatV1.15B25,2013-06-03 09:21:00,
2013-06-03 05:26:00,64.7,60.1,29.84,West,278,0.0,0.0,85,0.00,,,0.21,0,WeatherCatV1.15B25,2013-06-03 09:26:00,
2013-06-03 05:31:00,64.7,60.1,29.84,West,278,0.0,0.0,85,0.00,,,0.21,0,WeatherCatV1.15B25,2013-06-03 09:31:00,
2013-06-03 05:37:00,64.6,60.0,29.84,West,278,0.0,0.0,85,0.00,,,0.21,0,WeatherCatV1.15B25,2013-06-03 09:37:00,
2013-06-03 05:42:00,64.6,60.0,29.84,West,278,0.0,0.0,85,0.00,,,0.21,0,WeatherCatV1.15B25,2013-06-03 09:42:00,
2013-06-03 05:47:00,64.6,60.0,29.84,West,278,0.0,0.0,85,0.00,,,0.21,0,WeatherCatV1.15B25,2013-06-03 09:47:00,
2013-06-03 05:52:00,64.6,60.0,29.85,West,278,0.0,0.0,85,0.00,,,0.21,5,WeatherCatV1.15B25,2013-06-03 09:52:00,
2013-06-03 05:57:00,64.6,60.0,29.85,West,278,0.0,0.0,85,0.00,,,0.21,7,WeatherCatV1.15B25,2013-06-03 09:57:00,
2013-06-03 06:02:00,64.3,59.7,29.84,WSW,250,0.0,0.0,85,0.00,,,0.21,11,WeatherCatV1.15B25,2013-06-03 10:02:00,
2013-06-03 06:07:00,64.3,59.4,29.84,WSW,252,0.0,1.0,84,0.00,,,0.21,14,WeatherCatV1.15B25,2013-06-03 10:07:00,
2013-06-03 06:12:00,64.2,59.3,29.84,WSW,252,0.0,0.0,84,0.00,,,0.21,18,WeatherCatV1.15B25,2013-06-03 10:12:00,
2013-06-03 06:17:00,64.2,59.3,29.84,WSW,252,0.0,0.0,84,0.00,,,0.21,21,WeatherCatV1.15B25,2013-06-03 10:17:00,
2013-06-03 06:22:00,64.1,59.2,29.85,WSW,252,1.0,1.0,84,0.00,,,0.21,25,WeatherCatV1.15B25,2013-06-03 10:22:00,
2013-06-03 06:26:00,64.1,59.2,29.84,WSW,252,0.0,1.0,84,0.00,,,0.21,25,WeatherCatV1.15B25,2013-06-03 10:26:00,
2013-06-03 06:31:00,64.1,59.5,29.84,WSW,252,0.0,0.0,85,0.00,,,0.21,26,WeatherCatV1.15B25,2013-06-03 10:31:00,
2013-06-03 06:36:00,64.0,59.4,29.84,WSW,252,0.0,0.0,85,0.00,,,0.21,32,WeatherCatV1.15B25,2013-06-03 10:36:00,
2013-06-03 06:41:00,63.9,59.3,29.84,SE,138,0.0,0.0,85,0.00,,,0.21,40,WeatherCatV1.15B25,2013-06-03 10:41:00,
2013-06-03 06:46:00,64.0,59.4,29.84,SE,138,0.0,0.0,85,0.00,,,0.21,42,WeatherCatV1.15B25,2013-06-03 10:46:00,
2013-06-03 06:51:00,64.0,59.4,29.84,SE,138,0.0,0.0,85,0.00,,,0.21,46,WeatherCatV1.15B25,2013-06-03 10:51:00,
2013-06-03 06:56:00,64.1,59.5,29.84,SE,137,0.0,0.0,85,0.00,,,0.21,49,WeatherCatV1.15B25,2013-06-03 10:56:00,
2013-06-03 07:01:00,64.3,59.7,29.85,SE,135,0.0,0.0,85,0.00,,,0.21,54,WeatherCatV1.15B25,2013-06-03 11:01:00,
2013-06-03 07:06:00,64.5,59.9,29.85,SE,135,0.0,0.0,85,0.00,,,0.21,60,WeatherCatV1.15B25,2013-06-03 11:06:00,
2013-06-03 07:11:00,64.5,59.9,29.85,SE,135,0.0,0.0,85,0.00,,,0.21,56,WeatherCatV1.15B25,2013-06-03 11:11:00,
2013-06-03 07:16:00,64.7,60.1,29.85,SE,135,0.0,0.0,85,0.00,,,0.21,120,WeatherCatV1.15B25,2013-06-03 11:16:00,
2013-06-03 07:21:00,65.0,60.4,29.85,East,83,0.0,0.0,85,0.00,,,0.21,156,WeatherCatV1.15B25,2013-06-03 11:21:00,
2013-06-03 07:28:00,65.5,60.9,29.85,East,83,0.0,0.0,85,0.00,,,0.21,176,WeatherCatV1.15B25,2013-06-03 11:28:00,
2013-06-03 07:33:00,65.6,61.0,29.85,East,99,0.0,1.0,85,0.00,,,0.21,195,WeatherCatV1.15B25,2013-06-03 11:33:00,
2013-06-03 07:38:00,65.9,61.3,29.85,East,99,1.0,1.0,85,0.00,,,0.21,206,WeatherCatV1.15B25,2013-06-03 11:38:00,
2013-06-03 07:43:00,66.0,61.4,29.85,WNW,296,0.0,1.0,85,0.00,,,0.21,209,WeatherCatV1.15B25,2013-06-03 11:43:00,
2013-06-03 07:48:00,66.2,61.2,29.85,WSW,241,0.0,0.0,84,0.00,,,0.21,236,WeatherCatV1.15B25,2013-06-03 11:48:00,
2013-06-03 07:53:00,66.3,61.3,29.85,WSW,247,0.0,2.0,84,0.00,,,0.21,258,WeatherCatV1.15B25,2013-06-03 11:53:00,
2013-06-03 07:58:00,66.8,62.1,29.86,WSW,247,0.0,0.0,85,0.00,,,0.21,221,WeatherCatV1.15B25,2013-06-03 11:58:00,
2013-06-03 08:03:00,67.2,62.2,29.86,SE,130,0.0,2.0,84,0.00,,,0.21,295,WeatherCatV1.15B25,2013-06-03 12:03:00,
2013-06-03 08:08:00,67.9,63.2,29.86,SE,130,0.0,1.0,85,0.00,,,0.21,294,WeatherCatV1.15B25,2013-06-03 12:08:00,
2013-06-03 08:13:00,68.4,63.7,29.86,SE,130,0.0,1.0,85,0.00,,,0.21,330,WeatherCatV1.15B25,2013-06-03 12:13:00,
2013-06-03 08:18:00,68.4,64.0,29.86,West,272,0.0,1.0,86,0.00,,,0.21,156,WeatherCatV1.15B25,2013-06-03 12:18:00,
2013-06-03 08:23:00,68.7,64.3,29.86,West,272,0.0,1.0,86,0.00,,,0.21,336,WeatherCatV1.15B25,2013-06-03 12:23:00,
2013-06-03 08:28:00,69.4,64.7,29.86,West,271,0.0,0.0,85,0.00,,,0.21,359,WeatherCatV1.15B25,2013-06-03 12:28:00,
2013-06-03 08:33:00,69.8,65.1,29.86,WSW,254,0.0,1.0,85,0.00,,,0.21,306,WeatherCatV1.15B25,2013-06-03 12:33:00,
2013-06-03 08:38:00,70.1,65.7,29.86,WSW,255,0.0,0.0,86,0.00,,,0.21,406,WeatherCatV1.15B25,2013-06-03 12:38:00,
2013-06-03 08:43:00,70.4,66.0,29.86,WSW,255,0.0,0.0,86,0.00,,,0.21,425,WeatherCatV1.15B25,2013-06-03 12:43:00,
2013-06-03 08:48:00,70.4,66.0,29.86,South,181,1.0,2.0,86,0.00,,,0.21,469,WeatherCatV1.15B25,2013-06-03 12:48:00,
2013-06-03 08:53:00,70.5,66.1,29.86,SSE,151,0.0,2.0,86,0.00,,,0.21,512,WeatherCatV1.15B25,2013-06-03 12:53:00,
2013-06-03 08:58:00,70.5,66.1,29.86,ESE,119,0.0,1.0,86,0.00,,,0.21,552,WeatherCatV1.15B25,2013-06-03 12:58:00,
2013-06-03 09:03:00,70.7,66.0,29.86,East,86,1.0,2.0,85,0.00,,,0.21,589,WeatherCatV1.15B25,2013-06-03 13:03:00,
2013-06-03 09:08:00,71.4,67.0,29.86,East,85,0.0,0.0,86,0.00,,,0.21,541,WeatherCatV1.15B25,2013-06-03 13:08:00,
2013-06-03 09:13:00,71.6,67.2,29.86,WSW,238,0.0,2.0,86,0.00,,,0.21,589,WeatherCatV1.15B25,2013-06-03 13:13:00,
2013-06-03 09:18:00,72.1,67.0,29.86,NW,310,3.0,3.0,84,0.00,,,0.21,606,WeatherCatV1.15B25,2013-06-03 13:18:00,
2013-06-03 09:23:00,72.6,66.8,29.86,NW,311,3.0,6.0,82,0.00,,,0.21,192,WeatherCatV1.15B25,2013-06-03 13:23:00,
2013-06-03 09:28:00,72.4,66.2,29.86,WNW,298,1.0,3.0,81,0.00,,,0.21,139,WeatherCatV1.15B25,2013-06-03 13:28:00,
2013-06-03 09:33:00,72.0,65.8,29.86,NW,305,0.0,3.0,81,0.00,,,0.21,107,WeatherCatV1.15B25,2013-06-03 13:33:00,
2013-06-03 09:38:00,72.0,66.5,29.86,WNW,299,0.0,1.0,83,0.00,,,0.21,657,WeatherCatV1.15B25,2013-06-03 13:38:00,
2013-06-03 09:44:00,72.4,66.9,29.86,NNW,337,1.0,7.0,83,0.00,,,0.21,183,WeatherCatV1.15B25,2013-06-03 13:44:00,
2013-06-03 09:49:00,72.8,67.0,29.86,WNW,302,3.0,4.0,82,0.00,,,0.21,663,WeatherCatV1.15B25,2013-06-03 13:49:00,
2013-06-03 09:54:00,73.6,67.8,29.86,NNE,31,0.0,3.0,82,0.00,,,0.21,680,WeatherCatV1.15B25,2013-06-03 13:54:00,
2013-06-03 09:59:00,74.4,67.4,29.86,NW,308,0.0,1.0,79,0.00,,,0.21,719,WeatherCatV1.15B25,2013-06-03 13:59:00,
2013-06-03 10:04:00,74.8,67.8,29.86,NE,52,1.0,2.0,79,0.00,,,0.21,779,WeatherCatV1.15B25,2013-06-03 14:04:00,
2013-06-03 10:09:00,75.0,66.9,29.86,East,79,0.0,1.0,76,0.00,,,0.21,635,WeatherCatV1.15B25,2013-06-03 14:09:00,
2013-06-03 10:14:00,75.3,67.6,29.86,East,101,1.0,4.0,77,0.00,,,0.21,923,WeatherCatV1.15B25,2013-06-03 14:14:00,
2013-06-03 10:19:00,75.6,67.5,29.86,NE,56,1.0,2.0,76,0.00,,,0.21,932,WeatherCatV1.15B25,2013-06-03 14:19:00,
2013-06-03 10:24:00,75.8,68.4,29.86,ENE,60,0.0,1.0,78,0.00,,,0.21,139,WeatherCatV1.15B25,2013-06-03 14:24:00,
2013-06-03 10:29:00,75.5,67.0,29.85,WNW,296,0.0,1.0,75,0.00,,,0.21,135,WeatherCatV1.15B25,2013-06-03 14:29:00,
2013-06-03 10:34:00,75.1,66.6,29.85,NNE,17,1.0,1.0,75,0.00,,,0.21,172,WeatherCatV1.15B25,2013-06-03 14:34:00,
2013-06-03 10:39:00,75.0,66.1,29.85,WNW,292,2.0,6.0,74,0.00,,,0.21,800,WeatherCatV1.15B25,2013-06-03 14:39:00,
2013-06-03 10:44:00,75.4,66.5,29.85,WNW,299,0.0,3.0,74,0.00,,,0.21,805,WeatherCatV1.15B25,2013-06-03 14:44:00,
2013-06-03 10:49:00,75.6,67.5,29.85,WSW,237,0.0,2.0,76,0.00,,,0.21,824,WeatherCatV1.15B25,2013-06-03 14:49:00,
2013-06-03 10:54:00,75.9,67.4,29.85,WNW,300,1.0,3.0,75,0.00,,,0.21,923,WeatherCatV1.15B25,2013-06-03 14:54:00,
2013-06-03 10:59:00,76.3,65.4,29.85,ENE,74,1.0,2.0,69,0.00,,,0.21,1032,WeatherCatV1.15B25,2013-06-03 14:59:00,
2013-06-03 11:04:00,76.8,68.3,29.85,WNW,295,3.0,4.0,75,0.00,,,0.21,1004,WeatherCatV1.15B25,2013-06-03 15:04:00,
2013-06-03 11:09:00,77.2,67.5,29.85,WSW,241,1.0,4.0,72,0.00,,,0.21,698,WeatherCatV1.15B25,2013-06-03 15:09:00,
2013-06-03 11:14:00,77.3,66.7,29.85,WNW,285,0.0,2.0,70,0.00,,,0.21,573,WeatherCatV1.15B25,2013-06-03 15:14:00,
2013-06-03 11:19:00,77.6,68.2,29.85,West,279,3.0,4.0,73,0.00,,,0.21,621,WeatherCatV1.15B25,2013-06-03 15:19:00,
2013-06-03 11:25:00,77.8,67.6,29.85,WNW,297,3.0,3.0,71,0.00,,,0.21,640,WeatherCatV1.15B25,2013-06-03 15:25:00,
2013-06-03 11:26:00,77.9,67.3,29.85,NW,307,3.0,4.0,70,0.00,,,0.21,561,WeatherCatV1.15B25,2013-06-03 15:26:00,
2013-06-03 11:31:00,77.9,66.5,29.85,NW,306,2.0,3.0,68,0.00,,,0.21,504,WeatherCatV1.15B25,2013-06-03 15:31:00,
2013-06-03 11:36:00,77.8,67.2,29.85,NW,304,4.0,4.0,70,0.00,,,0.21,411,WeatherCatV1.15B25,2013-06-03 15:36:00,
2013-06-03 11:41:00,77.5,66.1,29.85,WNW,299,2.0,7.0,68,0.00,,,0.21,457,WeatherCatV1.15B25,2013-06-03 15:41:00,
2013-06-03 11:46:00,77.3,67.6,29.85,WNW,289,1.0,4.0,72,0.00,,,0.21,492,WeatherCatV1.15B25,2013-06-03 15:46:00,
2013-06-03 11:51:00,77.6,68.2,29.85,West,279,1.0,2.0,73,0.00,,,0.21,575,WeatherCatV1.15B25,2013-06-03 15:51:00,
2013-06-03 11:56:00,78.2,66.3,29.85,NW,316,1.0,5.0,67,0.00,,,0.21,958,WeatherCatV1.15B25,2013-06-03 15:56:00,
2013-06-03 12:01:00,78.5,65.7,29.85,NNW,348,0.0,3.0,65,0.00,,,0.21,599,WeatherCatV1.15B25,2013-06-03 16:01:00,
2013-06-03 12:06:00,78.7,66.8,29.85,WNW,289,2.0,3.0,67,0.00,,,0.21,571,WeatherCatV1.15B25,2013-06-03 16:06:00,
2013-06-03 12:11:00,78.9,67.0,29.85,WNW,298,3.0,3.0,67,0.00,,,0.21,483,WeatherCatV1.15B25,2013-06-03 16:11:00,
2013-06-03 12:16:00,78.8,66.0,29.85,WNW,284,2.0,7.0,65,0.00,,,0.21,448,WeatherCatV1.15B25,2013-06-03 16:16:00,
2013-06-03 12:21:00,78.5,65.3,29.85,NW,315,2.0,7.0,64,0.00,,,0.21,457,WeatherCatV1.15B25,2013-06-03 16:21:00,
2013-06-03 12:26:00,78.4,66.5,29.85,WNW,285,2.0,5.0,67,0.00,,,0.21,1296,WeatherCatV1.15B25,2013-06-03 16:26:00,
2013-06-03 12:31:00,78.5,64.8,29.85,WNW,294,5.0,8.0,63,0.00,,,0.21,332,WeatherCatV1.15B25,2013-06-03 16:31:00,
2013-06-03 12:36:00,77.8,65.9,29.85,North,354,7.0,7.0,67,0.00,,,0.21,357,WeatherCatV1.15B25,2013-06-03 16:36:00,
2013-06-03 12:41:00,76.9,65.5,29.85,NNW,330,1.0,3.0,68,0.00,,,0.21,388,WeatherCatV1.15B25,2013-06-03 16:41:00,
2013-06-03 12:46:00,76.4,65.5,29.85,West,270,4.0,4.0,69,0.00,,,0.21,418,WeatherCatV1.15B25,2013-06-03 16:46:00,
2013-06-03 12:51:00,76.2,65.7,29.85,West,265,1.0,5.0,70,0.00,,,0.21,339,WeatherCatV1.15B25,2013-06-03 16:51:00,
2013-06-03 12:56:00,75.9,65.4,29.86,NW,308,2.0,8.0,70,0.00,,,0.21,262,WeatherCatV1.15B25,2013-06-03 16:56:00,
2013-06-03 13:01:00,75.4,64.9,29.86,WNW,298,3.0,5.0,70,0.00,,,0.21,334,WeatherCatV1.15B25,2013-06-03 17:01:00,
2013-06-03 13:06:00,75.0,64.9,29.86,NW,309,2.0,5.0,71,0.00,,,0.21,295,WeatherCatV1.15B25,2013-06-03 17:06:00,
2013-06-03 13:11:00,74.6,65.0,29.86,NW,323,4.0,7.0,72,0.00,,,0.21,262,WeatherCatV1.15B25,2013-06-03 17:11:00,
2013-06-03 13:17:00,74.4,64.8,29.86,WNW,298,3.0,4.0,72,0.00,,,0.21,206,WeatherCatV1.15B25,2013-06-03 17:17:00,
2013-06-03 13:22:00,74.1,64.9,29.86,WNW,301,2.0,2.0,73,0.00,,,0.21,151,WeatherCatV1.15B25,2013-06-03 17:22:00,
2013-06-03 13:27:00,73.9,64.7,29.86,NW,325,1.0,2.0,73,0.00,,,0.21,135,WeatherCatV1.15B25,2013-06-03 17:27:00,
2013-06-03 13:32:00,73.5,64.3,29.86,WNW,298,3.0,8.0,73,0.00,,,0.21,118,WeatherCatV1.15B25,2013-06-03 17:32:00,
2013-06-03 13:37:00,73.1,63.9,29.87,West,275,3.0,6.0,73,0.00,,,0.21,125,WeatherCatV1.15B25,2013-06-03 17:37:00,
2013-06-03 13:42:00,72.8,63.6,29.86,WNW,300,5.0,8.0,73,0.00,,,0.21,137,WeatherCatV1.15B25,2013-06-03 17:42:00,
2013-06-03 13:44:00,72.7,63.5,29.86,WNW,303,3.0,8.0,73,0.00,,,0.21,141,WeatherCatV1.15B25,2013-06-03 17:44:00,
2013-06-03 13:46:00,72.7,63.9,29.86,WNW,303,1.0,2.0,74,0.00,,,0.21,156,WeatherCatV1.15B25,2013-06-03 17:46:00,
2013-06-03 13:49:00,72.7,63.5,29.86,NE,38,0.0,2.0,73,0.00,,,0.21,185,WeatherCatV1.15B25,2013-06-03 17:49:00,
2013-06-03 13:54:00,72.7,63.9,29.86,WNW,296,1.0,3.0,74,0.00,,,0.21,200,WeatherCatV1.15B25,2013-06-03 17:54:00,
2013-06-03 13:56:00,72.8,63.6,29.86,WNW,297,2.0,3.0,73,0.00,,,0.21,223,WeatherCatV1.15B25,2013-06-03 17:56:00,
2013-06-03 14:01:00,72.9,63.7,29.86,NW,309,2.0,3.0,73,0.00,,,0.21,253,WeatherCatV1.15B25,2013-06-03 18:01:00,
2013-06-03 14:06:00,73.0,63.4,29.86,NW,312,0.0,1.0,72,0.00,,,0.21,223,WeatherCatV1.15B25,2013-06-03 18:06:00,
2013-06-03 14:11:00,73.3,64.5,29.86,ENE,75,0.0,2.0,74,0.00,,,0.21,234,WeatherCatV1.15B25,2013-06-03 18:11:00,
2013-06-03 14:16:00,73.4,63.4,29.85,ENE,60,1.0,1.0,71,0.00,,,0.21,216,WeatherCatV1.15B25,2013-06-03 18:16:00,
2013-06-03 14:21:00,73.4,64.6,29.85,East,101,1.0,1.0,74,0.00,,,0.21,227,WeatherCatV1.15B25,2013-06-03 18:21:00,
2013-06-03 14:26:00,73.4,64.2,29.85,East,88,1.0,2.0,73,0.00,,,0.21,229,WeatherCatV1.15B25,2013-06-03 18:26:00,
2013-06-03 14:31:00,73.5,65.1,29.86,NE,50,0.0,2.0,75,0.00,,,0.21,272,WeatherCatV1.15B25,2013-06-03 18:31:00,
2013-06-03 14:36:00,73.8,65.0,29.85,NNW,340,2.0,2.0,74,0.00,,,0.21,306,WeatherCatV1.15B25,2013-06-03 18:36:00,
2013-06-03 14:41:00,74.1,63.3,29.85,NNW,339,2.0,4.0,69,0.00,,,0.21,367,WeatherCatV1.15B25,2013-06-03 18:41:00,
2013-06-03 14:46:00,74.4,62.3,29.85,NW,309,1.0,5.0,66,0.00,,,0.21,369,WeatherCatV1.15B25,2013-06-03 18:46:00,
2013-06-03 14:51:00,74.6,62.9,29.85,West,263,0.0,2.0,67,0.00,,,0.21,404,WeatherCatV1.15B25,2013-06-03 18:51:00,
2013-06-03 14:56:00,74.9,63.6,29.85,NW,317,0.0,4.0,68,0.00,,,0.21,459,WeatherCatV1.15B25,2013-06-03 18:56:00,
2013-06-03 15:01:00,75.4,64.5,29.85,NNW,335,0.0,2.0,69,0.00,,,0.21,341,WeatherCatV1.15B25,2013-06-03 19:01:00,
2013-06-03 15:06:00,75.3,65.2,29.85,East,96,1.0,3.0,71,0.00,,,0.21,338,WeatherCatV1.15B25,2013-06-03 19:06:00,
2013-06-03 15:11:00,75.0,64.9,29.85,ENE,68,2.0,3.0,71,0.00,,,0.21,420,WeatherCatV1.15B25,2013-06-03 19:11:00,
2013-06-03 15:16:00,75.1,65.0,29.85,NE,53,2.0,2.0,71,0.00,,,0.21,454,WeatherCatV1.15B25,2013-06-03 19:16:00,
2013-06-03 15:21:00,75.3,64.8,29.85,NE,36,3.0,9.0,70,0.00,,,0.21,276,WeatherCatV1.15B25,2013-06-03 19:21:00,
2013-06-03 15:26:00,75.7,65.6,29.85,NNE,17,1.0,5.0,71,0.00,,,0.21,888,WeatherCatV1.15B25,2013-06-03 19:26:00,
2013-06-03 15:31:00,76.8,64.6,29.85,WNW,301,3.0,5.0,66,0.00,,,0.21,909,WeatherCatV1.15B25,2013-06-03 19:31:00,
2013-06-03 15:36:00,77.3,65.0,29.85,ENE,72,2.0,3.0,66,0.00,,,0.21,916,WeatherCatV1.15B25,2013-06-03 19:36:00,
2013-06-03 15:41:00,77.6,65.8,29.85,NNE,21,3.0,5.0,67,0.00,,,0.21,981,WeatherCatV1.15B25,2013-06-03 19:41:00,
2013-06-03 15:47:00,77.5,64.3,29.85,NNW,341,1.0,4.0,64,0.00,,,0.21,204,WeatherCatV1.15B25,2013-06-03 19:47:00,
2013-06-03 15:52:00,77.2,64.5,29.85,East,85,1.0,4.0,65,0.00,,,0.21,172,WeatherCatV1.15B25,2013-06-03 19:52:00,
2013-06-03 15:55:00,76.9,65.5,29.85,NW,323,2.0,2.0,68,0.00,,,0.21,144,WeatherCatV1.15B25,2013-06-03 19:55:00,
2013-06-03 15:57:00,76.7,64.0,29.85,NW,306,4.0,4.0,65,0.00,,,0.21,142,WeatherCatV1.15B25,2013-06-03 19:57:00,
2013-06-03 16:02:00,75.8,64.0,29.85,NNE,17,1.0,4.0,67,0.00,,,0.21,91,WeatherCatV1.15B25,2013-06-03 20:02:00,
2013-06-03 16:07:00,75.2,64.7,29.85,NNW,347,1.0,3.0,70,0.00,,,0.21,135,WeatherCatV1.15B25,2013-06-03 20:07:00,
2013-06-03 16:12:00,74.7,64.2,29.86,NNW,337,0.0,3.0,70,0.00,,,0.21,172,WeatherCatV1.15B25,2013-06-03 20:12:00,
2013-06-03 16:17:00,74.8,65.2,29.85,WNW,298,2.0,2.0,72,0.00,,,0.21,884,WeatherCatV1.15B25,2013-06-03 20:17:00,
2013-06-03 16:22:00,75.5,66.6,29.85,NE,42,1.0,2.0,74,0.00,,,0.21,865,WeatherCatV1.15B25,2013-06-03 20:22:00,
2013-06-03 16:27:00,76.4,66.3,29.85,NNW,343,2.0,2.0,71,0.00,,,0.21,875,WeatherCatV1.15B25,2013-06-03 20:27:00,
2013-06-03 16:30:00,77.0,66.9,29.85,NE,38,0.0,3.0,71,0.00,,,0.21,826,WeatherCatV1.15B25,2013-06-03 20:30:00,
2013-06-03 16:32:00,77.3,65.5,29.85,WNW,296,2.0,6.0,67,0.00,,,0.21,817,WeatherCatV1.15B25,2013-06-03 20:32:00,
2013-06-03 16:37:00,77.4,65.1,29.85,ENE,72,0.0,4.0,66,0.00,,,0.21,274,WeatherCatV1.15B25,2013-06-03 20:37:00,
2013-06-03 16:42:00,77.4,65.1,29.85,NW,309,1.0,2.0,66,0.00,,,0.21,796,WeatherCatV1.15B25,2013-06-03 20:42:00,
2013-06-03 16:47:00,77.2,64.9,29.84,NNE,17,0.0,3.0,66,0.00,,,0.21,227,WeatherCatV1.15B25,2013-06-03 20:47:00,
2013-06-03 16:53:00,77.1,66.1,29.84,NNW,331,3.0,3.0,69,0.00,,,0.21,640,WeatherCatV1.15B25,2013-06-03 20:53:00,
2013-06-03 16:56:00,77.2,65.8,29.84,North,351,2.0,2.0,68,0.00,,,0.21,591,WeatherCatV1.15B25,2013-06-03 20:56:00,
2013-06-03 17:01:00,77.6,64.9,29.84,NNE,28,0.0,1.0,65,0.00,,,0.21,563,WeatherCatV1.15B25,2013-06-03 21:01:00,
2013-06-03 17:06:00,77.9,65.6,29.84,NNW,339,0.0,3.0,66,0.00,,,0.21,554,WeatherCatV1.15B25,2013-06-03 21:06:00,
2013-06-03 17:11:00,78.1,65.4,29.84,NE,34,0.0,2.0,65,0.00,,,0.21,580,WeatherCatV1.15B25,2013-06-03 21:11:00,
2013-06-03 17:16:00,77.9,64.3,29.84,WSW,237,0.0,2.0,63,0.00,,,0.21,548,WeatherCatV1.15B25,2013-06-03 21:16:00,
2013-06-03 17:21:00,77.8,64.2,29.84,WNW,292,3.0,4.0,63,0.00,,,0.21,188,WeatherCatV1.15B25,2013-06-03 21:21:00,
2013-06-03 17:26:00,77.5,64.3,29.84,NW,306,0.0,4.0,64,0.00,,,0.21,223,WeatherCatV1.15B25,2013-06-03 21:26:00,
2013-06-03 17:31:00,77.0,64.3,29.84,NW,315,0.0,1.0,65,0.00,,,0.21,251,WeatherCatV1.15B25,2013-06-03 21:31:00,
2013-06-03 17:36:00,76.6,63.0,29.84,NW,318,3.0,3.0,63,0.00,,,0.21,214,WeatherCatV1.15B25,2013-06-03 21:36:00,
2013-06-03 17:43:00,76.0,62.5,29.84,SW,227,0.0,8.0,63,0.00,,,0.21,149,WeatherCatV1.15B25,2013-06-03 21:43:00,
2013-06-03 17:46:00,75.7,62.2,29.84,WNW,291,3.0,5.0,63,0.00,,,0.21,114,WeatherCatV1.15B25,2013-06-03 21:46:00,
2013-06-03 17:51:00,75.2,62.6,29.85,WNW,299,3.0,4.0,65,0.00,,,0.21,83,WeatherCatV1.15B25,2013-06-03 21:51:00,
2013-06-03 17:56:00,74.8,62.7,29.85,NNW,340,1.0,1.0,66,0.00,,,0.21,123,WeatherCatV1.15B25,2013-06-03 21:56:00,
2013-06-03 18:01:00,74.7,63.4,29.84,NW,310,2.0,3.0,68,0.00,,,0.21,134,WeatherCatV1.15B25,2013-06-03 22:01:00,
2013-06-03 18:06:00,74.6,62.0,29.84,NNE,25,0.0,2.0,65,0.00,,,0.21,123,WeatherCatV1.15B25,2013-06-03 22:06:00,
2013-06-03 18:11:00,74.6,62.0,29.85,NNW,329,0.0,2.0,65,0.00,,,0.21,132,WeatherCatV1.15B25,2013-06-03 22:11:00,
2013-06-03 18:16:00,74.6,62.5,29.85,NW,318,0.0,2.0,66,0.00,,,0.21,130,WeatherCatV1.15B25,2013-06-03 22:16:00,
2013-06-03 18:21:00,74.7,63.4,29.84,North,359,1.0,1.0,68,0.00,,,0.21,130,WeatherCatV1.15B25,2013-06-03 22:21:00,
2013-06-03 18:26:00,74.8,63.5,29.84,WNW,298,0.0,5.0,68,0.00,,,0.21,179,WeatherCatV1.15B25,2013-06-03 22:26:00,
2013-06-03 18:31:00,74.9,61.9,29.84,NW,305,2.0,2.0,64,0.00,,,0.21,135,WeatherCatV1.15B25,2013-06-03 22:31:00,
2013-06-03 18:36:00,74.9,61.0,29.85,WNW,284,3.0,5.0,62,0.00,,,0.21,125,WeatherCatV1.15B25,2013-06-03 22:36:00,
2013-06-03 18:41:00,74.9,61.9,29.85,NNW,334,1.0,3.0,64,0.00,,,0.21,156,WeatherCatV1.15B25,2013-06-03 22:41:00,
2013-06-03 18:46:00,74.9,61.9,29.85,WNW,302,1.0,3.0,64,0.00,,,0.21,114,WeatherCatV1.15B25,2013-06-03 22:46:00,
2013-06-03 18:51:00,74.9,61.4,29.86,NNW,337,1.0,2.0,63,0.00,,,0.21,125,WeatherCatV1.15B25,2013-06-03 22:51:00,
2013-06-03 18:56:00,74.8,60.9,29.85,NW,308,1.0,3.0,62,0.00,,,0.21,130,WeatherCatV1.15B25,2013-06-03 22:56:00,
2013-06-03 19:02:00,74.7,61.2,29.85,NW,323,1.0,2.0,63,0.00,,,0.21,111,WeatherCatV1.15B25,2013-06-03 23:02:00,
2013-06-03 19:07:00,74.6,61.6,29.86,NNW,334,2.0,4.0,64,0.00,,,0.21,109,WeatherCatV1.15B25,2013-06-03 23:07:00,
2013-06-03 19:10:00,74.4,60.5,29.86,NW,312,1.0,1.0,62,0.00,,,0.21,107,WeatherCatV1.15B25,2013-06-03 23:10:00,
2013-06-03 19:11:00,74.3,60.9,29.86,WNW,301,1.0,4.0,63,0.00,,,0.21,98,WeatherCatV1.15B25,2013-06-03 23:11:00,
2013-06-03 19:16:00,74.0,60.6,29.86,NNW,329,0.0,1.0,63,0.00,,,0.21,76,WeatherCatV1.15B25,2013-06-03 23:16:00,
2013-06-03 19:21:00,73.8,60.8,29.86,NNW,328,1.0,2.0,64,0.00,,,0.21,74,WeatherCatV1.15B25,2013-06-03 23:21:00,
2013-06-03 19:26:00,73.5,60.6,29.87,NW,316,2.0,2.0,64,0.00,,,0.21,72,WeatherCatV1.15B25,2013-06-03 23:26:00,
2013-06-03 19:31:00,73.3,59.9,29.88,NW,309,0.0,1.0,63,0.00,,,0.21,58,WeatherCatV1.15B25,2013-06-03 23:31:00,
2013-06-03 19:36:00,73.1,60.2,29.88,NNW,339,0.0,1.0,64,0.00,,,0.21,44,WeatherCatV1.15B25,2013-06-03 23:36:00,
2013-06-03 19:41:00,73.0,60.1,29.88,NW,305,0.0,1.0,64,0.00,,,0.21,47,WeatherCatV1.15B25,2013-06-03 23:41:00,
2013-06-03 19:46:00,72.9,60.4,29.88,NW,324,0.0,1.0,65,0.00,,,0.21,44,WeatherCatV1.15B25,2013-06-03 23:46:00,
2013-06-03 19:51:00,72.6,58.4,29.88,NNW,328,0.0,3.0,61,0.00,,,0.21,30,WeatherCatV1.15B25,2013-06-03 23:51:00,
2013-06-03 19:56:00,72.3,58.5,29.88,NW,308,1.0,2.0,62,0.00,,,0.21,25,WeatherCatV1.15B25,2013-06-03 23:56:00,
2013-06-03 19:57:00,72.3,58.5,29.88,NW,308,0.0,1.0,62,0.00,,,0.21,25,WeatherCatV1.15B25,2013-06-03 23:57:00,
2013-06-03 20:01:00,72.1,58.8,29.88,NW,313,0.0,2.0,63,0.00,,,0.21,23,WeatherCatV1.15B25,2013-06-04 00:01:00,
2013-06-03 20:06:00,71.6,59.2,29.88,NW,312,3.0,4.0,65,0.00,,,0.21,18,WeatherCatV1.15B25,2013-06-04 00:06:00,
2013-06-03 20:11:00,71.1,58.7,29.88,WNW,287,1.0,2.0,65,0.00,,,0.21,14,WeatherCatV1.15B25,2013-06-04 00:11:00,
2013-06-03 20:16:00,70.6,58.7,29.88,NW,308,0.0,3.0,66,0.00,,,0.21,12,WeatherCatV1.15B25,2013-06-04 00:16:00,
2013-06-03 20:21:00,70.1,57.8,29.89,NNW,329,2.0,4.0,65,0.00,,,0.21,12,WeatherCatV1.15B25,2013-06-04 00:21:00,
2013-06-03 20:26:00,69.9,57.2,29.89,NNW,328,1.0,5.0,64,0.00,,,0.21,11,WeatherCatV1.15B25,2013-06-04 00:26:00,
2013-06-03 20:31:00,69.7,57.4,29.89,NW,307,1.0,3.0,65,0.00,,,0.21,5,WeatherCatV1.15B25,2013-06-04 00:31:00,
2013-06-03 20:36:00,69.6,57.3,29.89,NW,306,2.0,3.0,65,0.00,,,0.21,0,WeatherCatV1.15B25,2013-06-04 00:36:00,
2013-06-03 20:41:00,69.4,57.1,29.89,NW,326,1.0,5.0,65,0.00,,,0.21,0,WeatherCatV1.15B25,2013-06-04 00:41:00,
2013-06-03 20:46:00,69.1,57.3,29.90,NW,311,1.0,3.0,66,0.00,,,0.21,0,WeatherCatV1.15B25,2013-06-04 00:46:00,
2013-06-03 20:51:00,68.8,57.0,29.90,NW,314,0.0,3.0,66,0.00,,,0.21,0,WeatherCatV1.15B25,2013-06-04 00:51:00,
2013-06-03 20:56:00,68.5,56.7,29.90,NW,312,2.0,3.0,66,0.00,,,0.21,0,WeatherCatV1.15B25,2013-06-04 00:56:00,
2013-06-03 21:01:00,68.2,56.8,29.90,NW,318,1.0,2.0,67,0.00,,,0.21,0,WeatherCatV1.15B25,2013-06-04 01:01:00,
2013-06-03 21:06:00,68.1,56.7,29.91,NNW,333,0.0,2.0,67,0.00,,,0.21,0,WeatherCatV1.15B25,2013-06-04 01:06:00,
2013-06-03 21:11:00,68.0,56.6,29.91,NW,324,0.0,3.0,67,0.00,,,0.21,0,WeatherCatV1.15B25,2013-06-04 01:11:00,
2013-06-03 21:16:00,67.9,56.9,29.92,North,356,1.0,2.0,68,0.00,,,0.21,0,WeatherCatV1.15B25,2013-06-04 01:16:00,
2013-06-03 21:21:00,67.7,56.7,29.92,NNW,348,2.0,3.0,68,0.00,,,0.21,0,WeatherCatV1.15B25,2013-06-04 01:21:00,
2013-06-03 21:26:00,67.6,56.2,29.92,NNE,21,0.0,4.0,67,0.00,,,0.21,0,WeatherCatV1.15B25,2013-06-04 01:26:00,
2013-06-03 21:31:00,67.5,56.1,29.92,NW,310,0.0,3.0,67,0.00,,,0.21,0,WeatherCatV1.15B25,2013-06-04 01:31:00,
2013-06-03 21:37:00,67.4,56.5,29.93,NW,320,1.0,3.0,68,0.00,,,0.21,0,WeatherCatV1.15B25,2013-06-04 01:37:00,
2013-06-03 21:42:00,67.1,56.2,29.93,NE,38,0.0,3.0,68,0.00,,,0.21,0,WeatherCatV1.15B25,2013-06-04 01:42:00,
2013-06-03 21:47:00,67.0,56.1,29.93,NW,304,1.0,4.0,68,0.00,,,0.21,0,WeatherCatV1.15B25,2013-06-04 01:47:00,
2013-06-03 21:52:00,66.8,55.9,29.93,WNW,294,0.0,1.0,68,0.00,,,0.21,0,WeatherCatV1.15B25,2013-06-04 01:52:00,
2013-06-03 21:57:00,66.6,55.7,29.94,NNE,30,0.0,1.0,68,0.00,,,0.21,0,WeatherCatV1.15B25,2013-06-04 01:57:00,
2013-06-03 22:02:00,66.4,55.5,29.94,NNE,12,0.0,1.0,68,0.00,,,0.21,0,WeatherCatV1.15B25,2013-06-04 02:02:00,
2013-06-03 22:07:00,66.2,55.3,29.95,NNW,333,0.0,3.0,68,0.00,,,0.21,0,WeatherCatV1.15B25,2013-06-04 02:07:00,
2013-06-03 22:12:00,66.1,55.2,29.95,NW,304,1.0,4.0,68,0.00,,,0.21,0,WeatherCatV1.15B25,2013-06-04 02:12:00,
2013-06-03 22:17:00,66.0,55.1,29.95,NW,308,2.0,3.0,68,0.00,,,0.21,0,WeatherCatV1.15B25,2013-06-04 02:17:00,
2013-06-03 22:22:00,65.9,55.0,29.95,North,7,1.0,2.0,68,0.00,,,0.21,0,WeatherCatV1.15B25,2013-06-04 02:22:00,
2013-06-03 22:27:00,65.7,54.8,29.95,NW,307,0.0,1.0,68,0.00,,,0.21,0,WeatherCatV1.15B25,2013-06-04 02:27:00,
2013-06-03 22:32:00,65.4,55.0,29.96,WNW,294,2.0,2.0,69,0.00,,,0.21,0,WeatherCatV1.15B25,2013-06-04 02:32:00,
2013-06-03 22:37:00,65.2,54.8,29.96,North,353,0.0,2.0,69,0.00,,,0.21,0,WeatherCatV1.15B25,2013-06-04 02:37:00,
2013-06-03 22:42:00,65.1,54.7,29.96,WNW,301,0.0,1.0,69,0.00,,,0.21,0,WeatherCatV1.15B25,2013-06-04 02:42:00,
2013-06-03 22:47:00,64.9,54.5,29.96,NW,308,1.0,1.0,69,0.00,,,0.21,0,WeatherCatV1.15B25,2013-06-04 02:47:00,
2013-06-03 22:52:00,64.7,55.1,29.96,WSW,250,3.0,5.0,71,0.00,,,0.21,0,WeatherCatV1.15B25,2013-06-04 02:52:00,
2013-06-03 22:57:00,64.3,54.3,29.96,WNW,287,2.0,2.0,70,0.00,,,0.21,0,WeatherCatV1.15B25,2013-06-04 02:57:00,
2013-06-03 23:02:00,64.2,54.2,29.97,NW,311,1.0,5.0,70,0.00,,,0.21,0,WeatherCatV1.15B25,2013-06-04 03:02:00,
2013-06-03 23:07:00,64.1,54.1,29.97,NW,306,0.0,1.0,70,0.00,,,0.21,0,WeatherCatV1.15B25,2013-06-04 03:07:00,
2013-06-03 23:12:00,63.9,55.1,29.96,NW,306,0.0,1.0,73,0.00,,,0.21,0,WeatherCatV1.15B25,2013-06-04 03:12:00,
2013-06-03 23:17:00,63.5,54.3,29.97,NW,306,0.0,0.0,72,0.00,,,0.21,0,WeatherCatV1.15B25,2013-06-04 03:17:00,
2013-06-03 23:22:00,63.1,53.9,29.97,NW,306,0.0,0.0,72,0.00,,,0.21,0,WeatherCatV1.15B25,2013-06-04 03:22:00,
2013-06-03 23:27:00,62.6,53.8,29.97,NW,306,0.0,0.0,73,0.00,,,0.21,0,WeatherCatV1.15B25,2013-06-04 03:27:00,
2013-06-03 23:32:00,62.1,53.7,29.97,NW,306,0.0,0.0,74,0.00,,,0.21,0,WeatherCatV1.15B25,2013-06-04 03:32:00,
2013-06-03 23:37:00,61.7,54.1,29.98,NW,306,0.0,0.0,76,0.00,,,0.21,0,WeatherCatV1.15B25,2013-06-04 03:37:00,
2013-06-03 23:42:00,61.2,53.9,29.98,NW,306,0.0,2.0,77,0.00,,,0.21,0,WeatherCatV1.15B25,2013-06-04 03:42:00,
2013-06-03 23:47:00,60.4,53.9,29.98,NW,306,0.0,1.0,79,0.00,,,0.21,0,WeatherCatV1.15B25,2013-06-04 03:47:00,
2013-06-03 23:52:00,59.9,53.7,29.98,NW,306,1.0,1.0,80,0.00,,,0.21,0,WeatherCatV1.15B25,2013-06-04 03:52:00,
2013-06-03 23:57:00,59.1,53.3,29.98,NW,306,0.0,2.0,81,0.00,,,0.21,0,WeatherCatV1.15B25,2013-06-04 03:57:00,